Temp
29 28 27 27 27 29 29 29 29 29 28 27 25 24 23 22 22 23 23 22 23 23 23 24 24 25 26 26 25 25 27 28 28 28 28 28 28 28 28 28 28 28 28 28 28 28 28 27 27 27 27 26 26 26 26 26 26 26 26 26 25 25 26 26 26 26 26 26 26 26 26 25 25 25 25 25 25 25 25 25 24 24 24 24 24 25
28 26 26 28 29 29 29 29 30 29 28 27 25 23 23 22 22 23 23 22 23 23 23 23 24 24 24 24 23 23 25 27 28 28 28 28 28 28 28 28 28 29 28 28 28 28 28 27 27 27 27 27 26 26 26 26 26 26 26 26 25 25 26 26 26 26 26 26 26 26 26 26 25 25 25 25 25 25 24 25 24 24 24 24 24 25
27 25 27 29 29 29 29 30 30 28 27 26 24 23 22 22 22 22 22 22 23 23 23 22 23 23 23 23 24 23 23 25 26 27 28 28 28 28 28 28 28 28 28 28 28 28 28 27 27 27 27 27 27 26 26 26 26 26 25 25 25 25 25 25 26 26 26 26 26 26 26 26 26 25 25 25 25 25 25 24 24 24 24 24 24 24
24 26 29 29 29 29 29 30 30 28 27 26 24 23 22 22 23 22 21 22 22 23 23 22 22 22 22 23 24 24 23 23 24 25 27 28 28 28 28 28 28 28 28 27 28 28 27 27 27 27 27 27 26 26 26 26 26 25 25 25 25 25 25 25 25 26 25 25 25 26 26 26 26 25 25 25 25 25 25 24 24 24 25 25 25 24
26 28 30 29 29 29 29 30 30 27 25 25 25 24 22 23 24 23 22 22 22 22 23 23 22 21 22 23 24 24 23 24 24 25 27 28 28 28 28 28 29 28 28 27 28 28 27 27 27 27 27 27 26 26 26 26 26 25 25 25 25 25 25 25 25 25 25 25 25 25 25 25 25 25 25 25 24 24 24 24 24 24 25 25 25 25
27 29 30 29 29 29 29 30 29 27 24 24 26 26 24 24 24 23 23 22 22 21 22 23 21 21 22 22 24 24 24 24 24 25 27 27 27 28 28 28 28 28 28 28 28 27 27 27 27 27 27 26 26 26 26 26 26 25 25 25 25 25 25 25 25 25 25 25 25 25 25 25 25 25 25 25 24 24 24 24 24 24 25 25 25 25
29 30 30 30 30 30 30 29 30 28 24 23 26 27 25 24 23 22 23 22 21 21 22 22 21 21 21 22 23 23 24 25 24 25 26 27 27 27 28 28 28 28 28 28 28 27 27 27 27 26 27 27 26 26 26 26 26 26 25 25 25 25 25 25 25 25 25 25 25 25 25 25 25 25 25 25 25 25 25 25 24 24 24 24 24 24
31 30 30 31 30 30 29 28 29 29 25 24 27 27 24 24 23 23 23 22 21 22 22 22 22 21 20 22 24 23 23 24 24 25 25 26 26 27 28 28 28 28 28 28 27 27 27 27 27 26 27 27 26 26 26 26 26 26 26 25 25 25 25 25 25 25 25 26 25 25 25 25 25 25 25 25 25 25 25 25 25 24 24 24 24 24
32 31 31 31 30 29 29 29 29 30 27 26 27 26 24 24 23 23 23 22 22 22 21 21 22 21 21 22 23 23 23 24 24 25 25 25 26 26 27 28 28 28 28 28 27 27 27 27 27 27 27 27 27 26 26 26 26 26 26 25 25 25 25 25 25 25 25 26 26 25 25 25 25 25 25 25 25 25 25 25 25 25 24 24 24 25
31 31 32 31 30 30 31 31 30 30 28 27 27 26 25 24 23 22 23 22 22 22 21 21 22 21 21 22 22 22 22 24 25 25 25 25 26 26 27 28 28 28 28 28 27 27 27 27 27 27 27 27 27 27 26 26 26 26 26 25 25 25 25 25 25 25 25 25 26 25 25 25 25 25 25 25 25 25 25 25 25 25 25 24 24 25
30 32 32 32 32 32 32 31 30 29 28 27 27 25 24 24 23 22 23 23 22 21 21 21 22 21 21 21 22 22 23 24 25 25 25 26 26 26 26 27 28 28 28 28 28 27 27 27 27 27 27 27 27 27 27 26 26 26 25 25 25 25 25 25 25 25 25 25 25 25 26 25 25 25 25 25 25 25 25 25 25 25 25 25 25 25
31 31 32 32 33 33 32 31 30 29 28 27 26 25 23 22 22 21 22 22 21 20 21 22 22 22 20 21 23 24 25 25 26 26 26 26 26 26 26 26 28 28 28 28 28 27 27 27 27 27 27 27 27 27 27 26 26 26 25 25 25 25 25 25 24 25 25 25 25 25 25 25 25 25 25 25 25 25 25 25 25 25 25 25 25 24
30 31 32 32 33 33 32 29 28 28 27 27 26 24 22 21 21 21 21 21 21 21 22 22 22 22 21 23 25 25 25 25 26 26 27 27 27 27 26 26 27 28 28 28 27 27 27 27 27 27 27 27 27 27 27 26 26 25 25 25 25 25 25 25 24 24 25 25 25 25 25 25 25 25 25 25 26 25 25 25 25 25 25 25 25 24
26 30 32 32 32 33 32 27 24 25 26 26 25 23 22 21 21 21 20 21 21 21 22 22 22 21 21 24 26 26 25 26 26 27 27 27 27 27 27 26 27 27 28 28 27 27 27 27 27 27 27 27 27 27 27 26 26 25 25 25 25 25 25 25 24 24 24 25 25 25 25 25 25 25 25 26 26 25 25 25 25 25 25 25 25 25
23 25 29 31 31 32 33 30 27 27 26 26 28 26 23 22 21 21 21 21 21 21 21 22 22 21 21 24 26 27 26 26 26 26 27 27 27 27 27 27 27 27 28 28 27 27 27 27 27 28 27 27 27 27 27 26 26 25 25 25 25 25 25 25 25 24 24 24 25 25 25 25 25 25 25 25 26 25 25 25 25 25 25 25 25 25
22 23 29 31 31 32 32 32 32 29 26 27 29 27 23 24 24 22 21 21 21 21 21 21 21 22 23 25 26 26 26 27 27 27 27 27 27 27 27 27 27 27 27 28 27 27 27 27 28 28 27 27 27 27 26 26 26 25 25 25 25 25 25 25 25 25 24 24 25 25 25 25 25 25 25 25 25 25 25 25 25 25 25 25 25 25
22 23 30 31 31 32 32 32 33 30 27 28 27 25 26 29 26 22 21 22 21 21 21 21 21 23 24 25 26 26 26 26 27 27 27 27 27 26 26 27 27 27 27 28 27 27 27 27 27 28 28 27 27 27 26 26 26 25 25 25 25 25 25 25 25 25 24 24 25 25 25 25 25 25 25 25 25 25 25 25 25 25 25 25 25 25
24 23 28 30 30 32 32 32 33 33 31 29 25 26 29 29 27 24 21 21 21 21 21 21 21 22 22 23 25 26 26 26 27 27 27 27 27 26 26 27 27 27 27 28 28 27 27 27 27 28 28 28 28 27 26 26 26 26 26 25 25 25 25 25 25 25 24 24 24 25 25 25 25 25 25 25 25 25 25 25 25 25 25 25 25 25
26 23 26 30 29 30 32 32 30 32 33 31 29 31 29 25 24 23 22 21 21 21 21 21 21 21 21 22 24 25 26 27 27 27 27 27 27 26 26 27 27 27 27 28 28 27 26 27 27 28 28 28 28 27 26 26 26 26 26 25 25 25 25 25 25 25 25 24 24 25 25 25 25 25 25 25 25 25 25 25 25 25 25 25 26 25
27 24 23 28 29 29 31 30 27 28 32 32 31 32 30 26 24 23 23 23 21 21 21 21 21 21 23 24 25 26 27 27 27 27 28 27 27 27 27 27 27 27 27 27 27 27 26 26 27 28 28 28 27 27 26 26 26 26 25 25 25 25 25 25 25 25 25 24 24 25 25 25 25 25 25 25 25 25 25 25 25 25 26 26 26 26
28 25 22 26 28 27 27 28 27 27 29 30 28 27 27 27 26 25 25 23 22 21 21 21 21 22 25 27 27 27 27 28 28 27 27 27 27 26 26 26 27 26 26 25 25 26 25 25 26 27 28 28 27 27 26 26 26 26 25 25 25 25 25 25 25 25 25 25 24 25 25 25 25 25 25 25 25 25 25 25 26 26 26 26 26 26
26 25 22 23 25 24 25 29 30 29 29 29 28 27 27 27 25 24 23 23 23 22 21 22 21 23 27 28 27 28 28 28 28 27 25 25 25 24 24 25 25 24 24 25 25 25 24 23 25 26 27 27 26 26 26 26 26 25 25 25 25 25 25 25 25 25 25 25 25 25 25 25 25 25 25 25 25 25 25 25 26 26 26 26 26 26
26 25 23 22 23 25 27 29 29 29 30 31 30 30 30 28 25 22 22 22 23 22 22 22 21 24 28 27 27 28 27 27 27 26 24 24 24 25 24 23 23 23 23 24 24 23 22 22 24 25 26 26 26 26 26 26 26 25 25 25 25 25 25 25 25 25 25 25 25 25 25 25 25 25 25 25 25 25 26 26 26 26 26 26 26 26
27 25 23 22 24 26 28 29 29 30 30 29 28 29 29 28 28 26 25 25 23 22 22 22 21 24 27 26 26 26 25 25 25 24 24 24 24 24 23 22 23 24 24 23 23 22 21 22 23 24 24 25 25 25 25 25 25 25 25 25 25 25 25 25 25 25 25 25 25 25 25 25 25 25 25 25 25 26 26 26 26 26 26 26 26 26
25 24 22 21 22 23 25 26 26 27 27 26 26 28 28 28 29 29 27 26 23 22 22 22 21 24 26 26 25 24 24 24 24 23 24 24 23 22 22 22 22 23 23 23 22 21 21 21 22 22 23 24 25 25 25 25 25 25 25 25 25 25 25 25 25 25 25 25 25 25 25 25 25 25 26 26 26 26 26 26 26 26 26 27 27 27
26 24 23 21 20 21 21 22 23 24 25 25 26 27 27 27 28 27 25 24 22 22 23 22 22 24 25 25 25 24 23 23 23 22 23 23 22 21 21 22 22 22 21 22 22 22 21 21 21 21 22 24 25 25 25 25 25 25 25 25 26 26 25 25 26 26 25 25 25 25 25 26 26 26 26 26 26 26 26 26 27 27 27 27 27 27
26 25 24 22 21 22 22 22 24 25 24 24 25 25 26 25 26 27 25 23 23 23 22 23 24 24 24 24 24 23 23 23 22 22 22 22 22 21 21 21 21 21 21 21 21 21 22 21 21 21 21 22 23 24 24 25 25 25 25 25 25 26 25 25 25 25 26 26 26 26 26 26 26 26 26 26 26 26 26 27 27 27 27 27 27 27
26 24 25 24 23 24 24 23 25 26 24 23 24 24 25 25 25 24 23 23 24 23 22 23 24 23 23 24 24 23 22 22 22 22 22 21 21 21 21 21 21 21 21 21 21 21 22 22 21 21 21 21 21 21 22 22 22 23 23 23 23 23 23 24 24 24 24 26 26 25 26 26 26 26 26 26 26 26 26 27 27 27 27 27 27 27
26 23 25 25 24 25 24 23 25 26 24 24 24 24 24 24 23 22 22 23 25 23 23 24 23 22 23 23 23 22 21 21 21 21 21 21 21 21 21 21 21 21 21 21 21 21 21 21 21 21 21 22 22 21 20 20 20 20 21 20 20 21 21 23 24 23 23 24 25 25 25 25 26 26 26 26 26 26 27 27 27 27 27 27 27 27
25 24 26 26 24 24 24 23 25 25 24 23 24 23 24 23 23 22 22 23 24 24 23 23 22 22 22 22 22 21 21 21 20 21 21 21 21 21 21 21 21 21 21 21 21 21 21 21 21 20 20 21 21 21 22 22 22 22 21 21 22 22 22 22 23 22 22 22 23 24 25 25 25 25 26 26 26 26 27 27 27 26 26 27 27 26
25 24 26 26 23 23 24 24 24 24 23 22 23 23 23 23 23 22 21 22 23 23 23 22 22 22 21 22 22 21 21 21 21 21 21 21 21 21 21 21 21 21 21 20 20 21 21 21 21 20 20 20 21 21 22 22 22 22 21 21 22 23 23 23 22 21 22 23 23 24 25 25 25 25 25 26 26 26 26 26 27 27 26 26 26 26
25 25 25 24 22 21 24 24 24 24 23 22 22 22 22 22 22 21 20 20 21 22 22 22 21 21 21 22 22 21 21 20 20 21 21 21 21 21 21 21 21 21 20 20 20 20 20 20 20 20 20 20 20 20 21 21 21 20 20 20 21 21 22 23 22 22 22 23 23 24 24 24 24 24 24 25 25 25 25 25 26 26 26 26 25 25
26 25 24 23 21 21 23 24 23 23 22 21 21 22 22 21 21 21 20 20 20 21 22 21 21 21 21 21 21 21 21 20 20 20 20 20 20 20 20 21 21 20 20 20 20 20 20 19 19 19 19 19 19 19 20 21 20 20 20 20 21 21 22 22 22 22 22 23 23 23 23 23 24 24 24 24 24 24 24 24 24 24 24 25 24 24
26 25 24 23 21 21 22 23 23 21 20 20 21 21 21 21 21 20 20 19 19 20 21 21 21 21 21 21 21 20 20 20 20 19 19 19 19 20 20 20 20 20 20 20 20 19 19 19 19 18 18 18 19 19 20 21 20 20 20 20 21 22 23 23 22 21 22 23 23 22 23 23 23 24 23 23 23 23 24 23 23 23 23 23 24 24
26 25 24 23 21 21 22 22 21 20 20 21 22 22 22 21 21 20 20 19 20 20 20 20 20 20 19 20 20 20 19 19 19 19 19 19 19 20 20 20 20 19 19 19 19 19 18 18 18 18 18 18 18 19 19 19 19 20 20 20 20 21 22 23 22 21 22 23 23 22 22 23 23 23 23 22 22 23 23 23 23 23 23 23 23 23
26 25 24 22 21 21 21 21 20 20 21 22 22 22 22 22 22 22 21 20 19 19 19 19 19 19 19 19 19 19 19 19 19 19 19 19 19 19 19 19 19 18 18 18 18 18 18 18 18 18 18 18 18 18 17 17 18 19 20 20 20 20 20 21 20 19 20 21 21 21 21 21 22 22 22 22 22 22 21 21 21 22 22 22 22 22
26 25 23 22 21 20 20 20 20 20 20 21 22 22 22 22 22 22 21 19 19 19 19 19 19 19 19 19 19 20 20 20 19 19 19 19 19 19 18 18 18 18 18 18 18 18 18 18 18 17 17 17 17 17 17 17 17 18 18 19 19 19 19 19 18 18 19 19 19 20 20 20 20 21 21 21 21 21 21 20 20 21 21 21 21 22
25 25 24 22 20 20 20 20 20 20 20 21 22 22 22 22 22 23 21 20 20 19 19 19 19 19 19 19 20 20 20 20 19 19 19 18 18 18 18 18 18 18 18 18 18 18 18 17 17 17 17 17 17 17 17 17 17 17 17 17 17 18 18 18 17 18 18 18 18 19 19 19 20 20 20 20 20 20 20 20 20 20 21 21 21 21
24 23 24 22 20 20 20 20 20 20 20 21 22 22 22 21 22 23 22 20 20 19 19 19 19 19 19 20 20 20 20 20 19 19 18 18 18 18 18 18 18 18 18 18 18 18 17 17 17 17 17 17 17 17 17 17 17 17 16 16 17 17 17 17 17 18 18 18 18 18 19 19 19 19 19 20 20 20 19 19 20 20 20 20 20 20
23 23 23 21 20 20 20 20 20 20 21 22 22 22 22 21 22 22 21 20 20 19 19 19 19 19 19 18 19 20 20 19 19 18 18 18 18 18 18 18 17 18 18 18 18 18 18 18 18 18 18 17 17 17 17 17 17 16 16 16 17 17 17 17 17 18 18 18 18 18 18 18 18 18 18 19 19 18 18 19 19 19 19 19 19 19
22 22 21 20 20 20 20 20 20 20 21 22 22 23 22 21 21 21 20 20 21 19 19 19 19 19 18 18 19 20 19 19 19 18 18 18 18 18 18 18 18 18 18 18 18 18 18 18 18 18 18 18 17 17 17 17 17 17 17 17 17 17 17 17 17 18 18 18 18 18 18 18 18 18 18 18 18 18 18 19 19 19 19 19 18 18
21 21 20 20 20 20 20 20 20 20 21 22 22 23 22 21 21 21 21 21 21 20 19 19 18 18 19 19 19 19 19 19 19 18 19 19 18 18 19 18 19 19 19 19 19 19 19 19 18 18 18 18 18 18 18 18 17 17 17 17 17 17 17 17 17 18 18 18 18 18 18 18 18 18 18 18 19 19 19 18 18 18 18 18 18 18
21 21 20 20 19 19 19 20 19 20 22 22 22 22 22 22 22 21 21 21 21 21 21 20 19 19 19 19 19 19 19 19 19 19 19 19 19 19 19 19 19 19 19 19 19 19 19 19 19 18 18 18 18 18 18 18 17 17 17 17 17 17 17 18 18 18 18 18 18 18 18 18 18 18 18 18 19 19 19 18 18 18 18 18 18 18
22 21 20 20 20 20 20 20 20 21 22 22 22 22 22 22 22 21 21 21 21 22 21 21 20 20 20 20 20 20 20 19 19 19 19 19 19 19 19 19 19 19 19 19 19 19 19 19 18 18 18 18 18 18 18 18 17 17 17 17 17 17 17 18 18 18 18 18 18 18 18 18 18 18 18 18 18 19 19 18 18 18 18 18 18 18
22 22 22 21 20 20 20 21 21 21 21 21 21 22 22 22 22 22 21 21 21 21 21 21 21 21 21 21 21 21 21 20 20 20 20 19 19 19 19 19 19 19 20 19 19 19 19 19 18 18 18 18 18 18 18 18 17 17 17 17 17 18 18 18 18 18 18 18 18 19 19 19 19 19 19 18 19 19 19 19 18 18 18 18 18 17
22 22 22 21 21 20 21 21 21 21 21 21 21 21 21 22 22 22 22 22 22 22 21 21 21 21 21 21 21 21 21 21 21 20 20 20 20 19 19 19 20 20 19 19 19 19 19 19 18 18 18 18 18 18 18 17 17 17 17 17 18 18 18 18 18 18 18 18 18 19 19 19 19 19 18 18 18 18 19 19 19 18 18 18 18 18
22 22 22 21 21 20 20 20 21 21 21 21 21 21 22 22 22 22 22 22 21 22 21 21 21 21 21 21 21 21 21 21 21 21 20 20 20 19 19 19 19 20 19 19 19 19 19 18 18 18 18 17 17 18 18 17 17 17 17 17 18 18 18 18 18 18 18 18 18 18 19 19 19 19 18 18 18 18 18 18 18 18 18 18 18 18
23 23 22 21 21 21 20 20 21 21 21 21 22 21 22 22 21 21 21 21 21 21 21 20 20 21 21 21 21 21 21 21 21 21 21 20 19 18 19 19 19 20 20 19 19 19 19 18 18 18 18 17 17 17 18 18 18 17 17 18 18 18 18 18 18 18 18 18 18 18 18 19 19 18 18 18 18 18 18 18 18 18 18 18 18 18
23 23 22 21 21 21 20 20 21 21 21 21 21 21 21 21 21 21 21 21 21 21 20 20 20 20 20 20 21 21 20 20 20 20 21 20 18 18 19 19 20 20 20 19 20 20 19 19 18 18 18 18 18 18 18 17 17 18 18 18 18 18 18 18 18 18 18 18 18 18 18 18 18 18 18 18 18 18 18 17 18 18 18 18 17 17
23 22 21 21 20 20 20 21 21 21 21 21 21 21 21 21 21 21 21 21 21 20 20 20 20 19 19 19 19 20 20 20 19 19 19 19 18 18 19 19 19 20 19 19 20 20 19 19 19 18 18 18 18 18 17 17 18 18 18 18 18 18 18 18 18 18 18 18 18 18 18 18 18 18 18 17 17 17 17 17 17 17 17 17 17 17
23 22 21 21 21 21 21 21 21 21 21 20 21 21 21 21 21 21 20 21 20 20 20 20 20 19 19 18 18 19 19 19 19 19 18 18 18 19 20 20 20 19 19 19 19 19 19 19 19 18 18 18 18 18 18 18 18 18 18 18 18 18 18 18 18 18 18 18 18 18 18 18 17 17 17 17 17 17 17 17 17 17 17 17 17 17
Height
773 785 790 788 787 783 779 778 779 781 785 791 799 805 811 816 819 816 816 815 810 818 823 817 819 818 812 812 812 810 807 806 810 812 812 812 813 814 815 815 816 816 815 814 817 820 821 823 825 827 829 831 833 835 837 839 841 842 844 846 848 849 850 851 852 853 854 854 855 856 857 858 858 859 860 861 862 862 863 864 864 864 865 865 865 866
776 791 791 781 778 774 773 775 775 781 786 791 800 808 812 816 819 816 816 817 811 818 826 820 821 823 818 817 818 816 814 811 810 811 812 812 812 814 814 815 815 814 814 814 817 820 821 823 824 826 828 830 832 834 836 838 840 842 843 845 847 848 850 851 852 853 853 854 855 855 856 857 858 859 860 861 862 862 863 863 864 864 864 865 865 866
789 792 783 772 771 771 772 773 775 782 788 795 802 808 814 816 818 820 818 817 814 818 827 826 825 829 824 819 818 818 819 815 811 810 809 809 811 814 814 814 815 815 815 815 816 819 821 822 824 826 828 830 831 833 835 837 839 841 843 845 846 848 849 851 852 853 853 854 855 856 856 857 858 859 860 861 862 862 863 863 864 864 864 865 865 866
796 786 771 766 768 771 774 774 778 785 790 797 802 806 814 813 812 821 824 820 816 816 823 827 829 832 828 822 818 817 819 816 813 810 807 806 808 810 811 812 813 815 816 817 817 818 820 821 823 826 828 830 831 833 834 836 838 840 842 843 845 847 849 850 852 852 853 854 855 856 857 857 858 859 860 861 862 863 863 863 864 864 864 865 865 866
787 772 762 764 767 771 775 776 780 790 796 797 796 800 809 807 805 813 821 821 820 820 820 824 836 839 832 829 823 816 818 818 814 811 808 806 806 806 808 809 811 813 814 816 817 817 818 820 822 825 827 829 831 833 834 835 837 839 841 842 844 846 848 850 851 852 853 854 854 855 856 857 858 859 860 861 861 862 863 863 863 864 864 865 865 866
778 764 760 767 769 769 774 777 779 787 798 799 792 791 797 799 802 811 817 820 829 835 825 823 842 847 836 832 827 819 821 820 816 814 811 809 808 807 808 808 809 811 812 813 815 816 817 819 821 824 826 828 830 832 834 835 836 838 840 842 844 845 847 849 850 851 852 853 854 854 855 856 857 858 859 859 860 861 862 862 863 864 864 865 865 865
770 761 761 766 768 769 773 776 774 777 796 802 787 783 789 795 803 812 815 820 831 836 827 823 837 847 843 835 826 822 823 820 817 815 813 811 810 808 807 807 808 810 811 811 813 815 816 818 820 823 825 827 829 831 833 835 836 838 840 841 843 845 846 848 849 850 851 852 853 854 855 855 856 857 857 858 859 860 861 862 863 863 864 864 865 865
761 761 764 763 765 770 774 777 772 770 790 797 781 781 791 796 805 812 813 820 826 826 829 828 827 840 848 835 823 824 826 822 819 817 814 811 810 808 806 805 806 807 808 810 812 813 815 816 818 821 824 826 828 830 833 835 836 837 839 841 843 844 845 847 848 849 850 851 852 853 854 855 856 856 857 858 859 859 860 861 862 862 863 864 864 864
755 761 764 761 766 771 769 770 767 766 781 788 780 785 792 798 808 812 813 821 823 826 838 834 824 837 846 830 821 827 829 825 820 816 815 812 809 808 806 805 804 804 805 807 809 811 813 815 817 819 821 824 826 829 831 833 835 837 839 841 842 844 845 846 847 848 850 851 851 853 854 855 856 857 857 858 858 859 860 860 861 862 862 863 863 864
756 754 753 757 766 766 759 758 758 761 776 782 780 787 793 800 811 817 819 819 821 830 840 835 829 840 846 832 828 834 832 824 816 813 813 810 807 807 806 804 804 803 803 804 806 808 811 813 815 817 820 823 825 827 830 832 834 836 838 840 841 842 844 845 847 848 849 850 851 852 853 854 855 857 857 858 858 859 859 860 861 861 862 862 863 863
754 746 744 751 756 753 750 753 754 757 767 775 781 791 801 809 816 823 819 813 826 840 836 829 826 836 845 835 828 829 823 815 811 811 810 807 806 806 805 803 802 803 802 802 804 806 809 812 813 816 818 821 823 826 828 830 832 835 836 838 840 841 843 844 846 848 849 850 850 851 852 853 855 856 857 857 858 859 859 859 860 861 861 862 862 863
754 751 748 744 742 742 747 756 758 757 762 773 784 793 808 822 826 830 827 820 837 846 832 824 822 832 845 833 819 817 809 804 806 807 807 805 804 803 803 802 800 801 801 802 804 805 807 810 812 815 816 818 821 824 826 828 830 832 834 837 839 840 842 843 845 847 848 850 850 851 852 853 854 855 856 856 857 858 858 859 860 860 861 862 862 863
759 754 749 743 738 738 752 769 773 771 770 776 787 795 815 837 840 843 844 837 842 839 826 823 824 832 837 819 809 810 803 800 800 799 800 800 800 800 800 800 799 799 800 801 802 804 805 808 810 813 815 817 819 821 824 826 828 831 832 835 837 839 840 842 844 846 847 849 850 851 852 853 854 854 855 856 857 857 858 859 859 860 861 861 861 862
771 760 749 749 747 738 749 774 786 787 782 782 788 795 813 838 849 854 852 843 842 836 823 821 826 834 829 808 799 801 798 796 794 793 793 794 795 796 796 797 798 798 799 799 800 801 802 805 807 810 813 814 816 819 822 824 826 829 831 833 835 837 839 841 843 845 846 848 849 850 851 852 853 854 855 855 856 857 858 858 859 859 860 861 861 861
789 783 762 755 754 744 747 761 770 776 780 779 774 780 798 814 827 841 843 839 841 837 829 828 829 830 824 806 792 789 789 789 790 790 790 790 791 792 792 795 797 797 797 797 798 799 800 802 804 808 810 812 814 816 819 822 824 827 829 831 833 835 838 840 842 844 845 847 848 849 851 852 853 853 854 855 856 856 857 858 858 859 859 860 860 861
789 787 761 749 747 744 749 749 748 764 782 778 767 778 792 790 795 815 824 822 827 835 835 833 825 814 805 796 786 785 787 786 787 788 788 790 790 790 793 794 794 796 795 795 797 797 797 799 802 805 807 810 812 814 817 820 822 825 827 830 832 834 836 838 841 842 844 846 847 848 850 851 852 853 853 854 855 856 856 857 858 858 859 859 860 861
791 783 757 750 747 740 745 744 741 759 777 777 776 782 778 767 778 806 821 815 818 833 834 827 821 808 800 795 785 785 788 786 785 786 786 788 788 790 793 792 792 793 793 793 795 795 795 797 800 802 804 807 809 811 814 817 820 822 825 828 830 833 835 837 839 841 843 844 846 847 848 850 851 852 852 853 854 855 856 856 857 858 858 859 860 860
789 786 762 756 757 743 736 740 740 744 755 770 779 774 764 766 774 792 818 828 829 836 832 825 823 817 813 807 791 787 790 787 784 783 784 785 786 789 790 788 789 790 790 791 792 793 793 795 798 800 802 804 806 809 812 815 819 821 823 826 828 831 833 836 838 840 842 843 844 846 847 848 849 850 851 852 853 854 855 856 856 857 858 858 859 859
781 789 772 758 763 752 736 745 755 747 743 754 762 756 763 785 791 790 809 825 833 839 834 826 823 816 812 807 794 791 790 785 782 782 782 784 785 786 787 786 787 787 789 790 790 792 792 792 796 798 800 803 804 807 810 814 818 820 823 825 826 829 831 834 837 838 840 842 843 844 845 847 848 849 850 851 852 853 853 854 855 856 857 857 858 859
776 792 788 764 758 756 747 755 768 763 750 747 752 755 760 774 785 788 793 801 817 834 833 828 826 813 798 792 789 788 785 782 783 782 781 781 780 781 783 784 786 787 789 789 789 791 790 791 794 795 798 801 803 806 809 812 816 818 821 823 825 827 830 832 835 836 838 840 841 843 844 846 847 848 849 850 851 852 852 853 854 855 856 856 857 858
775 789 796 775 761 765 767 767 768 769 764 759 763 769 769 769 773 779 783 785 798 820 829 829 827 806 782 777 779 780 779 777 778 780 780 780 779 782 784 784 786 787 788 789 789 790 789 790 793 794 797 799 801 804 807 810 814 816 819 821 823 826 828 830 833 834 836 838 840 841 843 844 845 846 848 849 850 850 851 852 853 853 855 855 856 856
781 788 795 788 778 779 775 763 758 761 763 763 765 767 768 771 776 786 795 788 784 800 813 819 819 796 771 768 771 772 773 773 773 778 783 783 782 786 788 789 791 792 791 789 789 790 790 789 790 792 795 797 799 802 805 808 811 814 817 819 821 824 826 828 830 832 834 836 838 840 841 843 844 845 847 847 848 849 850 851 851 852 853 854 854 855
778 785 793 794 786 780 770 758 755 755 752 753 759 761 763 767 771 786 798 790 786 795 798 805 811 789 767 765 767 768 770 771 772 776 781 784 781 782 786 788 791 794 793 792 790 790 789 789 791 792 793 795 798 800 803 806 809 812 814 817 819 822 823 826 828 830 832 834 836 838 839 841 843 844 846 846 847 848 849 850 850 851 852 852 853 853
777 788 797 797 786 772 761 755 754 751 752 762 767 764 768 769 764 769 775 776 788 798 796 808 813 788 768 767 767 768 771 771 774 775 778 781 779 780 785 787 787 787 789 791 793 793 792 792 793 792 792 795 797 799 801 804 807 810 812 815 817 819 821 823 825 828 830 832 834 836 838 840 841 843 844 845 846 847 848 849 849 850 851 851 852 852
784 796 801 807 806 793 782 778 773 765 767 778 779 771 770 768 762 764 765 770 788 794 790 803 807 784 771 771 770 773 775 776 779 777 776 778 780 783 787 787 787 787 787 790 793 798 800 800 798 795 793 794 796 799 801 802 806 808 810 813 815 817 819 821 823 826 828 831 833 835 837 838 840 842 843 844 845 846 847 848 849 849 850 850 850 851
785 796 801 814 826 825 819 813 801 790 784 782 781 775 773 772 767 766 769 777 790 791 785 792 791 779 775 776 775 778 780 780 782 781 779 780 782 785 786 787 788 789 791 792 792 796 801 804 805 802 798 795 795 798 800 802 805 807 809 811 812 815 817 819 822 824 827 829 832 834 836 837 839 840 842 843 844 845 846 847 848 848 849 849 849 849
784 793 796 807 817 815 813 808 795 790 793 791 786 779 777 778 771 766 772 777 781 786 790 786 778 777 782 783 781 782 782 782 784 783 783 783 783 786 787 787 787 787 789 791 791 792 794 798 804 806 806 803 799 800 801 803 806 807 809 812 813 815 816 819 822 824 826 828 830 833 835 836 838 839 841 842 843 844 845 845 846 846 847 847 847 848
787 795 793 799 804 799 799 800 791 788 793 792 789 786 783 782 777 778 783 779 774 784 791 783 777 784 789 787 786 788 786 786 787 786 785 785 785 787 787 787 788 787 786 787 789 791 791 793 796 802 807 808 807 807 806 807 809 810 811 814 816 818 818 818 821 825 827 828 829 832 833 835 837 838 839 841 841 843 843 844 845 845 845 846 846 846
789 797 792 794 799 796 796 800 794 790 792 791 790 790 786 785 786 790 792 782 773 777 781 780 785 793 794 791 790 791 789 789 790 788 787 786 786 788 789 789 790 789 787 787 788 790 791 793 793 795 800 803 807 810 811 812 813 813 815 817 819 822 824 823 823 826 829 829 829 831 832 834 835 837 838 839 840 841 842 843 843 844 844 844 844 845
788 795 790 791 798 798 798 802 798 794 795 795 794 792 788 788 790 792 793 786 777 777 780 785 793 797 795 793 791 789 789 788 788 788 788 789 789 789 790 791 791 790 788 787 788 790 792 793 794 795 797 799 802 805 808 812 814 815 816 818 821 824 827 829 828 828 829 830 830 831 832 833 835 836 837 838 839 840 840 841 842 842 842 843 843 844
788 795 790 789 800 803 799 799 799 798 799 801 800 796 791 789 789 794 798 794 788 789 789 790 796 799 796 791 789 789 789 788 789 790 790 790 791 790 791 792 793 793 792 790 791 792 793 794 795 796 796 798 800 802 804 808 812 814 815 818 820 820 822 826 829 830 831 831 832 832 832 834 835 835 836 837 838 838 839 840 840 840 841 841 842 843
787 792 790 793 807 809 798 797 801 797 798 805 807 804 800 796 796 801 806 804 800 798 795 796 802 804 797 791 790 792 792 793 794 794 793 793 792 792 793 793 794 795 795 794 793 794 795 796 796 796 796 798 800 803 804 806 809 813 816 818 819 818 819 822 825 829 832 832 832 832 832 834 834 835 836 836 837 837 838 838 839 839 839 840 840 842
786 791 794 800 812 812 801 798 799 798 809 822 818 810 808 805 802 804 807 806 803 800 801 804 806 802 796 792 794 795 796 798 798 796 797 797 796 795 795 794 795 795 795 796 795 795 797 798 798 798 799 800 802 804 805 806 809 812 814 815 816 817 819 821 824 828 830 831 831 832 832 833 834 835 836 836 836 837 837 837 838 838 839 839 840 840
787 791 797 802 810 814 807 797 800 817 836 837 819 807 808 808 806 808 811 810 804 800 803 805 803 800 798 797 798 799 799 799 799 798 798 798 798 798 798 797 797 797 797 797 797 797 798 800 801 801 801 802 804 805 806 807 808 811 812 814 815 816 818 820 824 826 828 828 829 830 831 832 833 834 834 835 835 835 836 836 837 837 838 838 839 840
789 792 797 801 808 814 808 803 818 839 840 823 810 807 805 804 804 807 810 810 805 803 806 808 807 805 804 802 799 800 800 799 799 801 799 798 798 797 798 799 799 799 800 800 801 802 802 803 805 806 805 805 806 806 807 809 809 811 813 815 817 817 819 821 823 825 827 827 827 827 829 830 831 832 833 833 833 834 834 835 835 836 836 837 838 839
790 793 798 805 811 814 815 820 832 835 821 808 809 809 804 803 804 804 810 813 809 806 809 813 811 807 806 807 802 800 801 799 800 803 802 800 799 798 799 801 801 801 802 802 803 805 807 808 809 810 810 809 809 809 811 812 813 813 814 815 817 818 820 822 823 825 827 828 827 828 829 830 831 831 831 832 832 833 833 834 835 836 835 836 837 837
786 792 798 806 814 818 824 830 829 828 826 819 813 809 807 808 805 805 813 818 811 807 809 812 811 808 807 810 808 803 800 799 804 808 805 803 802 801 801 803 803 804 804 804 806 806 807 809 809 810 810 810 811 812 814 816 817 817 818 818 819 819 820 822 824 827 828 829 830 830 830 831 831 830 831 831 832 832 833 833 835 835 834 834 835 835
783 789 793 804 816 819 824 830 832 837 839 825 811 805 803 804 800 798 809 817 812 807 809 810 811 811 809 810 809 805 800 804 814 816 809 806 805 804 804 806 806 807 806 806 809 809 809 809 809 809 811 811 812 814 815 818 820 821 823 823 823 823 824 825 826 828 829 830 831 831 831 831 830 830 830 831 831 832 832 832 833 832 832 832 832 832
786 790 791 802 817 820 820 828 834 836 828 814 806 802 799 800 796 793 809 822 814 807 809 810 811 811 810 810 808 805 807 816 822 818 810 807 805 804 806 808 809 811 810 808 809 810 811 811 810 810 811 812 814 816 817 819 821 823 825 826 826 826 826 827 828 828 829 830 831 831 831 831 831 830 831 831 831 832 832 831 831 831 831 831 831 831
793 796 798 808 818 820 821 826 829 826 816 806 801 797 795 796 794 801 823 829 813 805 808 809 807 809 813 816 814 810 813 818 819 816 810 807 805 805 808 809 809 812 813 811 810 811 813 813 810 810 812 814 816 817 818 820 821 824 826 827 828 828 828 828 829 829 830 831 831 832 832 832 832 831 831 831 832 832 832 832 831 831 831 831 831 830
802 804 808 813 817 819 822 827 826 819 809 801 797 793 792 794 800 815 828 819 805 805 808 806 806 809 814 819 818 814 813 812 812 812 810 808 807 809 811 810 809 811 814 814 813 814 814 813 811 811 814 816 818 819 820 821 822 823 825 826 827 829 829 830 831 831 832 832 832 833 833 832 833 833 833 833 833 833 833 832 832 831 831 830 830 830
809 812 815 817 819 821 822 825 828 821 804 794 794 792 791 800 812 817 812 802 800 805 807 808 812 812 814 817 815 812 812 810 810 811 810 810 811 811 812 811 810 812 814 814 815 816 815 814 814 815 816 818 820 821 821 822 823 825 826 827 829 831 832 832 833 834 834 834 834 834 834 834 834 834 835 835 835 834 834 834 833 832 831 830 830 830
803 810 818 819 819 824 826 828 831 823 802 791 795 797 796 803 808 804 800 799 800 801 804 809 812 810 812 814 812 811 811 810 810 811 811 811 812 811 813 813 812 814 815 815 817 818 817 818 818 819 820 822 823 824 824 825 826 828 829 830 831 833 833 834 835 835 835 835 835 835 835 836 836 836 836 836 836 836 835 835 835 834 833 832 831 831
798 805 815 817 815 820 828 827 820 810 797 791 796 799 797 796 796 796 799 801 800 799 802 806 807 808 809 810 810 811 810 809 810 811 811 813 813 813 814 815 815 816 817 817 819 820 820 822 822 823 825 826 826 828 829 829 830 831 832 833 834 834 834 835 835 836 836 836 837 836 837 837 837 838 838 838 838 838 837 837 836 836 835 834 834 834
796 794 800 807 808 811 816 813 804 798 794 792 793 794 793 793 793 795 798 800 800 800 802 804 806 807 807 807 809 809 809 809 809 810 811 813 814 814 816 817 817 818 819 820 821 822 823 824 825 826 828 828 829 831 832 832 833 833 834 835 835 835 835 836 836 837 837 837 837 837 838 838 838 839 839 839 840 839 838 838 838 837 837 836 836 836
791 787 791 800 805 806 807 805 800 798 797 794 793 793 793 793 794 794 796 799 800 800 800 802 805 806 806 807 808 807 807 807 808 809 811 812 814 815 817 818 819 820 821 822 823 824 824 825 826 828 829 830 831 832 833 834 835 835 835 836 836 836 837 837 837 838 838 838 838 839 839 839 839 840 840 840 840 840 840 840 839 839 839 838 838 837
789 788 792 800 806 810 814 810 802 800 800 797 796 796 794 794 795 795 797 799 799 799 801 802 803 805 806 806 806 807 807 806 807 810 811 812 814 816 817 818 820 821 822 823 824 825 826 827 828 829 830 831 832 832 833 835 835 835 836 837 837 838 838 838 839 839 839 839 839 839 839 839 840 840 840 841 841 841 841 841 840 840 840 840 839 839
791 789 796 804 805 808 813 809 802 801 802 799 798 799 798 798 798 797 798 799 799 800 801 801 802 804 805 806 806 807 807 807 808 810 812 813 815 816 817 819 821 822 823 824 825 826 827 828 829 831 832 833 833 834 835 835 836 836 837 837 838 839 839 839 839 839 839 839 839 839 839 839 839 840 840 841 841 841 841 841 841 841 841 841 841 840
787 791 798 804 807 809 810 807 803 805 806 802 801 801 800 799 800 800 800 801 801 802 803 803 804 804 805 806 806 807 809 810 810 810 812 814 815 816 817 819 821 822 824 824 825 826 827 829 830 831 833 834 835 835 836 836 837 838 838 838 839 839 839 839 839 838 839 839 838 839 839 839 839 840 840 841 841 841 841 841 841 841 841 841 841 841
788 795 799 805 812 815 811 805 803 806 810 808 803 801 801 800 800 801 802 803 803 805 805 805 806 806 806 807 807 808 811 812 811 812 814 815 815 817 818 820 821 823 824 825 826 827 828 830 831 832 834 835 836 836 837 838 838 839 839 839 840 840 840 840 839 838 839 839 839 839 839 839 840 840 840 841 841 841 841 841 842 842 841 841 841 841
786 791 794 800 807 806 801 800 800 803 807 807 803 802 802 801 801 803 805 805 806 806 806 807 809 810 810 810 810 810 812 813 813 814 815 816 818 818 819 821 822 823 824 826 827 828 829 831 832 833 834 836 837 837 838 838 839 839 839 840 840 840 840 840 840 839 839 839 839 839 839 840 840 840 840 840 840 841 841 841 842 842 841 841 841 841
Wind_Speed
2 1 2 5 6 8 9 8 8 6 7 8 6 4 5 5 4 3 5 5 3 2 1 2 2 3 6 5 1 1 5 10 10 10 10 9 8 7 7 8 9 9 9 16 24 26 26 27 27 27 27 27 27 27 28 27 26 25 24 23 20 19 21 23 21 20 20 17 16 18 19 18 18 18 18 17 15 12 10 12 15 15 13 12 11 11
2 3 6 9 9 11 10 7 5 5 7 8 6 6 5 4 4 4 5 6 3 2 1 3 2 2 1 3 5 7 2 4 8 11 12 12 10 7 8 9 9 8 8 15 21 23 25 26 27 27 26 27 27 28 29 27 27 26 24 23 21 19 20 21 21 20 19 16 15 17 19 19 18 19 18 17 16 12 10 11 13 14 14 13 12 11
1 4 10 12 10 10 8 5 5 8 8 5 4 5 4 4 6 6 4 4 1 2 2 4 3 1 5 3 2 5 3 2 0 5 9 13 12 8 9 10 8 8 9 13 16 19 24 26 28 26 25 26 28 29 29 28 27 26 24 24 21 20 21 21 20 20 17 14 14 15 18 19 18 18 17 16 14 11 10 12 11 11 13 13 11 10
3 7 13 13 9 8 9 5 7 9 6 4 4 4 4 6 6 3 3 4 1 0 5 5 4 1 4 3 2 2 1 4 5 4 2 9 12 11 11 9 8 9 11 13 14 16 22 25 26 25 24 25 26 27 28 28 28 27 26 24 22 22 22 21 20 18 15 14 15 15 16 16 17 17 17 15 13 12 11 11 10 10 12 13 11 11
8 10 10 10 9 8 9 5 8 7 3 4 5 4 6 8 5 5 8 8 1 4 5 6 4 1 3 2 4 3 1 3 5 4 2 4 9 11 12 10 9 9 11 14 13 14 19 23 24 24 25 25 26 27 28 29 30 28 27 25 23 24 23 21 20 17 15 16 18 17 16 16 15 15 16 15 13 14 15 12 11 10 11 12 11 11
11 11 5 6 9 9 8 5 9 8 4 4 5 4 9 11 9 11 13 10 3 1 3 4 3 3 3 3 5 3 2 4 3 3 3 2 4 8 12 11 10 10 11 13 14 15 18 21 23 25 26 26 25 26 28 30 29 29 28 25 23 24 25 23 20 17 17 18 19 19 18 17 17 15 16 17 15 16 17 13 11 10 10 12 11 10
7 8 6 9 10 9 7 4 10 11 6 2 4 5 10 12 13 15 14 8 3 3 5 3 2 3 2 5 6 3 4 7 4 3 5 3 2 7 10 10 9 10 11 12 14 15 17 21 23 24 26 26 26 27 28 28 28 29 27 25 24 24 25 24 20 19 19 18 18 19 19 19 19 18 18 18 16 16 15 13 11 11 12 11 10 9
7 6 7 10 8 7 5 4 10 13 8 3 3 10 12 12 13 15 11 4 2 5 6 5 2 3 2 5 6 3 4 7 6 5 6 5 4 6 9 10 10 11 11 12 14 14 17 22 23 25 27 27 27 28 27 26 27 29 27 25 25 24 24 23 22 20 20 20 19 19 19 19 18 19 19 19 16 15 14 12 11 12 13 11 10 9
6 5 7 7 4 5 4 6 12 11 7 2 8 12 11 11 9 6 5 4 3 5 5 5 1 3 2 4 3 3 5 8 9 8 8 7 6 5 7 9 10 12 13 13 14 15 18 22 25 27 29 28 28 28 28 26 27 29 28 27 26 25 24 23 22 21 20 20 20 20 20 19 18 18 18 18 15 15 15 13 11 13 13 11 11 10
5 4 7 6 4 5 5 10 14 10 8 9 15 15 12 12 9 4 1 4 4 2 2 4 3 1 2 4 5 4 7 10 10 9 8 8 7 6 6 7 8 10 11 12 14 18 21 24 27 30 30 29 28 29 28 27 28 30 29 29 27 26 25 24 22 21 20 20 20 21 21 19 18 17 17 16 16 16 15 14 14 14 13 12 12 11
7 5 4 4 5 6 4 7 8 12 17 15 14 13 11 8 6 4 2 2 3 1 0 4 6 4 2 4 7 7 7 10 10 9 9 8 7 6 6 5 7 8 9 11 12 18 24 26 28 30 30 29 29 29 29 28 29 31 31 30 29 27 26 24 23 22 21 20 20 21 22 21 20 19 18 18 19 17 16 16 16 15 14 13 12 11
5 4 4 3 4 3 7 5 6 15 20 14 9 9 8 4 3 3 4 3 2 2 2 3 6 6 4 3 6 8 9 12 12 11 11 10 8 7 6 6 6 7 9 9 10 15 20 22 24 27 29 29 29 29 28 29 31 32 32 31 30 28 27 25 24 23 23 22 21 21 21 22 21 20 20 20 20 18 18 19 18 17 16 14 12 12
4 4 4 3 2 4 8 6 7 10 10 9 8 8 7 3 2 2 2 1 0 2 1 2 4 6 5 3 5 9 10 12 12 12 13 12 10 9 7 7 6 6 8 8 10 13 14 16 21 24 27 28 29 30 29 30 31 32 32 32 31 29 28 27 26 24 24 23 22 21 21 21 21 20 20 21 20 19 19 19 19 18 17 15 14 14
4 6 5 2 2 2 8 7 5 4 5 9 9 6 5 3 2 1 2 1 1 2 1 2 4 3 3 3 6 10 12 12 12 12 12 12 12 11 9 8 6 6 8 7 9 12 13 16 22 24 26 28 29 30 30 31 32 31 31 32 32 30 29 28 27 25 24 24 23 21 21 20 20 20 20 21 20 19 19 19 19 18 17 16 15 15
2 4 4 2 3 0 6 7 8 9 8 7 7 7 6 4 3 4 4 2 2 1 2 2 3 3 2 2 3 7 9 12 13 12 10 10 10 10 8 8 7 7 7 6 9 12 14 20 25 25 26 27 29 31 31 31 32 32 31 32 32 31 29 28 27 26 24 24 23 22 21 21 21 20 20 20 19 19 19 18 17 17 18 16 14 14
2 3 6 4 5 2 5 6 7 10 6 4 4 6 4 5 5 3 2 3 3 2 2 2 2 3 3 3 4 3 4 8 13 13 12 11 10 10 9 9 8 8 7 6 8 11 16 22 26 27 27 27 29 31 32 32 33 33 32 32 31 31 31 29 28 27 25 23 23 22 21 21 20 20 20 19 19 19 18 18 16 17 17 16 13 13
1 5 8 7 9 4 6 7 6 9 5 3 3 4 3 5 8 5 2 1 3 2 1 1 2 2 1 3 5 5 5 5 10 14 15 13 12 11 10 10 9 9 8 7 8 10 15 21 25 27 27 27 28 31 32 34 35 35 34 32 31 30 31 30 28 27 25 23 23 22 21 21 20 19 19 19 20 19 18 17 16 15 15 15 13 13
1 5 7 5 8 7 4 6 4 5 6 4 4 5 2 3 4 5 3 1 2 1 1 1 2 2 1 2 2 4 6 6 7 13 15 14 14 13 12 12 12 11 9 7 8 10 15 20 24 26 27 29 30 32 34 35 35 35 35 34 32 31 31 31 29 28 27 25 23 23 22 21 21 20 19 20 20 19 18 17 16 15 15 14 13 13
2 3 6 4 7 9 2 3 1 3 2 5 4 3 3 2 0 1 2 2 2 0 1 1 2 3 3 3 1 3 7 6 5 9 13 13 13 12 12 13 13 11 9 7 7 8 11 18 23 25 26 27 31 33 34 36 35 34 34 34 33 32 32 31 29 29 27 25 24 23 22 22 21 20 19 19 20 19 18 17 15 16 16 14 13 13
2 2 4 5 8 9 4 2 2 4 4 2 1 1 2 3 3 2 2 3 4 2 1 1 2 3 4 4 5 5 6 5 5 7 10 13 14 13 12 12 11 10 7 6 6 6 8 15 23 27 27 27 31 34 35 35 35 34 34 34 33 32 31 30 29 29 28 27 25 23 22 22 22 21 19 19 20 20 18 17 16 16 16 15 14 14
2 3 3 6 7 6 3 1 2 3 2 1 2 1 1 1 2 3 1 1 4 4 2 1 1 4 5 4 7 8 6 6 6 5 4 6 8 6 5 7 8 8 7 6 5 5 7 12 18 24 26 28 32 35 36 36 36 35 34 34 33 32 31 31 30 29 29 28 26 25 23 22 22 21 20 20 20 20 18 17 17 16 15 14 15 15
1 2 2 4 5 3 4 5 4 4 4 4 2 3 4 2 3 3 1 1 2 3 4 3 1 5 5 3 5 6 6 7 7 7 6 5 7 6 3 2 2 1 4 7 6 4 6 11 17 20 24 27 30 33 36 36 35 34 33 34 33 32 31 31 30 30 30 29 27 26 24 23 22 21 21 20 20 19 17 17 17 16 16 15 15 15
1 2 2 3 3 4 9 9 5 5 3 2 2 1 1 2 4 4 3 3 2 2 2 3 1 4 3 2 3 3 6 6 6 9 8 6 8 9 8 8 7 4 2 3 5 5 7 10 15 19 23 25 28 31 33 34 34 34 34 34 33 32 32 32 31 30 29 29 28 27 24 23 22 21 20 21 21 20 19 18 18 17 18 17 16 16
1 2 3 4 4 6 8 7 4 6 7 4 3 4 4 2 2 4 4 4 3 2 2 3 0 4 3 3 4 5 7 6 5 8 9 7 7 8 9 9 9 8 4 1 1 0 3 9 12 15 20 23 25 29 32 32 33 33 34 34 34 34 34 33 32 31 30 29 28 27 25 23 22 22 21 21 22 21 20 19 19 19 20 19 18 18
2 1 3 3 5 6 7 7 6 7 7 3 4 5 7 8 5 1 2 3 3 4 5 4 3 5 2 3 6 6 8 8 5 5 7 6 5 7 9 7 7 7 6 5 4 4 4 1 4 9 18 24 24 25 29 31 32 32 33 34 34 34 33 33 33 31 30 29 28 27 26 25 24 23 22 22 21 20 20 19 18 18 19 19 19 19
1 2 3 3 3 2 3 4 4 4 5 3 4 6 9 11 8 1 3 3 2 4 5 4 4 5 2 5 7 7 7 8 5 4 5 4 5 7 7 7 7 6 5 6 7 6 3 4 9 7 4 18 25 25 25 28 29 30 32 34 35 35 33 33 33 32 31 29 29 28 26 25 25 25 23 23 21 19 18 18 17 17 18 18 18 18
2 2 3 5 4 3 4 4 5 4 3 4 6 9 10 10 8 3 4 3 4 5 4 4 5 3 1 4 6 5 6 6 5 5 6 6 7 7 7 7 8 8 8 8 8 8 8 6 4 11 13 5 9 17 22 25 26 27 30 29 30 32 31 28 27 29 31 31 29 28 27 25 25 25 23 23 22 19 18 19 18 18 19 20 20 20
4 2 1 5 2 3 2 4 10 6 2 5 7 9 9 10 11 9 3 4 4 7 5 6 4 4 2 3 5 4 4 5 4 5 6 6 7 6 6 8 10 9 9 9 9 9 10 10 10 6 5 11 11 9 9 11 11 11 14 12 9 11 16 19 19 18 23 29 29 26 25 24 24 24 23 22 22 21 20 19 17 16 15 15 17 19
5 1 2 3 2 4 8 10 12 5 5 8 9 8 8 10 12 9 5 6 2 5 4 2 6 7 4 4 6 5 4 5 5 5 4 6 8 7 6 8 10 9 9 9 9 9 10 10 10 13 14 9 8 13 14 16 19 20 21 22 19 14 10 12 17 13 13 20 24 22 22 21 21 21 21 22 21 21 21 19 16 14 13 11 11 12
4 1 3 3 4 5 9 9 8 6 10 10 9 8 8 8 10 9 9 10 6 7 8 11 13 9 5 5 6 5 4 5 5 5 5 6 7 7 6 6 6 6 7 8 8 8 9 9 11 14 16 16 15 14 10 3 4 10 15 19 18 13 9 8 10 9 8 12 16 18 19 18 17 16 18 20 20 20 20 19 17 15 13 12 11 9
3 2 4 4 4 4 5 5 3 4 10 10 9 9 9 8 10 11 10 10 8 10 12 14 12 8 5 4 6 6 4 6 7 7 6 6 5 6 6 6 5 4 4 6 7 8 8 9 11 14 16 17 18 18 17 15 12 11 13 14 14 15 15 12 8 7 6 8 12 15 16 15 14 13 14 16 17 17 18 18 19 17 15 13 13 12
1 1 3 5 4 3 3 2 3 2 7 10 10 10 10 8 7 7 7 7 7 6 7 10 8 4 3 3 5 6 7 9 10 8 6 5 5 5 5 5 5 4 4 5 6 7 7 7 8 10 13 17 18 18 18 19 18 16 16 16 15 16 16 15 13 9 8 10 12 13 13 13 12 12 13 13 13 14 14 14 16 17 17 14 13 12
0 1 2 3 3 2 4 4 3 1 5 6 6 8 8 5 4 4 6 9 10 6 4 5 3 2 3 5 6 8 9 9 8 6 5 5 5 5 4 5 6 5 5 5 6 8 8 8 9 10 13 15 16 17 17 19 19 19 18 16 14 12 13 12 13 12 11 11 11 9 9 11 12 13 13 13 12 12 12 11 10 11 12 12 11 11
1 4 2 2 3 2 6 5 3 5 4 2 4 5 6 4 8 8 7 9 10 8 6 6 6 6 6 7 8 9 8 7 5 5 6 5 4 5 5 6 7 7 7 7 8 8 10 11 14 15 16 17 18 19 18 17 17 18 19 18 13 10 9 8 9 9 8 9 8 6 7 10 12 12 13 13 13 13 13 12 11 10 10 10 10 10
2 4 1 1 3 1 3 5 5 3 2 5 4 1 3 2 8 10 9 8 9 10 9 8 8 8 7 7 9 9 8 7 7 7 6 4 4 5 8 8 9 9 9 9 9 9 10 13 15 15 15 15 16 18 18 18 18 17 16 16 15 12 10 8 8 7 5 8 9 8 8 11 13 13 12 13 13 12 12 12 12 11 12 12 12 11
3 3 2 2 1 0 2 4 2 2 4 3 2 0 3 2 2 5 7 7 7 7 7 5 3 5 6 6 6 7 7 8 9 8 7 6 6 8 9 9 9 9 9 9 10 11 12 14 14 14 13 13 14 16 17 20 21 20 15 12 13 14 12 11 11 10 8 9 10 10 9 10 12 12 12 13 13 12 11 10 10 10 11 12 13 13
5 3 2 2 1 1 3 1 0 0 4 5 2 1 2 3 2 0 3 3 4 4 3 2 2 4 5 3 2 3 5 7 9 8 8 9 10 11 11 10 10 10 11 12 13 14 15 15 15 14 14 14 15 17 18 20 24 24 20 15 13 13 12 12 12 12 12 11 10 9 9 8 9 9 10 10 10 9 8 8 10 11 11 12 13 15
4 3 4 3 1 2 4 2 1 1 1 4 4 4 3 4 5 3 4 2 3 3 3 2 1 2 4 4 5 4 2 6 6 5 7 9 9 10 12 13 13 13 14 15 14 14 16 18 18 16 16 16 17 16 16 19 22 24 23 20 18 15 13 13 12 11 11 10 8 8 7 6 6 6 6 6 6 6 6 6 8 9 11 11 12 13
6 2 4 5 1 2 4 3 2 3 4 5 6 6 4 5 6 2 5 3 2 1 3 2 1 2 2 2 3 1 3 4 3 1 3 5 8 9 9 10 14 15 16 17 17 16 16 18 20 20 20 19 18 16 16 18 20 22 22 20 19 18 16 14 13 12 11 10 8 7 6 6 6 6 6 6 5 4 4 4 4 5 6 7 7 8
6 4 4 4 2 2 3 2 2 2 4 5 6 6 5 4 2 4 3 3 3 2 2 2 1 3 4 7 6 2 3 3 4 3 2 4 8 10 8 10 14 16 14 16 18 17 16 18 21 22 20 19 17 16 17 19 21 22 20 19 19 19 17 16 14 12 11 10 9 8 7 7 7 6 6 5 5 6 6 4 4 3 1 0 2 4
4 3 3 3 3 2 3 2 2 3 4 5 6 6 4 3 5 5 3 5 4 5 3 2 2 2 1 5 5 0 2 3 5 4 4 5 8 9 9 12 16 16 14 15 17 16 15 16 19 19 18 16 14 13 14 18 21 22 20 19 19 17 15 14 13 12 11 11 10 10 9 9 9 8 8 7 8 9 9 8 6 6 5 5 4 3
2 2 2 2 3 2 3 2 0 3 4 5 4 5 2 3 3 3 5 4 5 6 5 4 5 6 6 5 4 4 5 6 7 6 6 7 7 8 10 13 15 15 14 16 16 16 16 16 16 16 14 12 11 11 13 17 20 21 20 19 17 14 13 12 11 10 11 10 10 11 11 10 10 10 10 9 9 10 10 8 8 7 7 9 11 12
3 2 0 1 2 2 2 2 2 2 5 4 1 2 1 2 4 4 3 3 3 5 6 6 7 7 7 6 5 7 8 8 8 7 7 7 7 9 11 12 13 13 14 16 16 15 17 17 16 16 15 12 12 13 14 17 18 17 17 16 15 14 13 13 11 10 10 10 10 10 10 10 10 10 10 9 8 8 8 7 7 7 8 10 13 15
2 3 2 2 2 2 2 1 3 4 5 3 3 2 2 3 4 5 5 3 3 4 5 5 6 6 7 7 6 7 7 8 9 8 7 7 8 9 11 11 12 12 14 15 15 14 16 17 16 16 16 14 14 13 13 15 16 15 15 14 12 13 13 12 11 11 10 10 9 8 7 7 7 8 9 8 7 7 8 7 7 8 9 9 12 14
3 4 5 3 2 3 4 4 4 3 3 1 3 3 4 6 5 6 7 4 3 4 3 4 6 6 6 6 6 5 6 8 9 9 8 8 8 9 11 13 14 14 14 15 16 16 18 18 16 16 15 14 13 13 13 13 14 14 13 11 11 11 11 10 10 10 10 10 9 9 8 8 7 7 7 7 6 7 8 8 9 10 10 10 11 12
2 3 4 3 2 2 2 1 1 2 4 5 5 4 5 7 5 5 7 5 4 4 4 5 6 5 5 5 4 3 4 6 8 8 8 9 8 9 13 14 14 15 16 17 18 18 18 17 15 15 14 12 11 12 12 11 11 11 11 10 10 10 9 9 8 7 7 7 7 8 8 8 8 8 7 6 6 7 8 8 8 10 11 11 11 12
0 3 4 4 3 3 2 0 1 4 4 5 7 7 7 7 5 5 6 5 4 5 5 5 6 6 5 5 6 4 4 6 8 8 7 8 8 9 12 13 13 16 19 20 20 19 18 17 16 15 14 12 9 9 10 9 8 8 9 9 9 9 8 8 8 7 6 6 5 5 4 4 3 3 2 3 5 6 7 7 7 8 10 10 10 10
1 3 5 4 3 3 3 4 3 5 4 4 5 6 5 7 6 5 5 5 5 5 5 5 6 5 4 5 6 6 6 6 8 7 6 6 7 9 12 14 15 17 20 21 21 19 18 18 18 16 15 13 10 9 10 8 7 7 8 8 8 7 6 5 5 6 6 5 4 4 4 4 4 4 3 3 4 6 7 7 7 7 8 8 8 8
3 4 4 4 4 4 3 3 4 6 5 5 5 5 4 6 6 7 7 7 8 8 7 7 7 6 6 6 6 7 7 6 6 8 6 5 7 10 14 16 16 17 19 21 21 19 18 18 18 16 15 13 11 10 9 7 7 7 7 6 5 4 4 3 2 3 4 3 3 6 7 7 7 6 5 5 6 6 6 6 5 5 5 5 5 6
5 4 3 5 5 3 3 4 5 6 4 2 3 5 5 6 8 8 8 8 8 8 8 9 9 9 9 9 9 9 7 5 7 9 8 6 8 12 15 16 15 15 17 19 19 18 18 17 16 16 14 12 10 9 8 7 7 6 5 4 4 4 3 3 3 5 7 7 7 8 8 7 8 7 6 6 6 5 6 6 5 5 4 4 3 3
5 6 6 7 6 5 7 7 6 6 4 4 5 6 5 6 8 9 8 8 7 7 8 9 9 9 9 10 11 12 8 6 10 12 9 7 11 14 16 17 17 16 17 18 18 18 17 16 15 14 13 11 10 9 8 7 6 5 4 3 4 5 3 2 3 4 7 8 8 7 5 5 6 6 5 4 4 4 5 5 5 4 5 5 5 4
Wind_Direction
174 145 252 212 219 227 222 211 205 199 170 155 139 137 138 121 116 107 115 141 148 96 136 147 136 190 178 171 55 19 187 164 155 163 157 155 159 155 163 161 153 166 164 146 150 154 155 156 159 160 161 163 165 167 166 165 166 166 166 168 166 164 165 166 167 170 172 173 167 165 171 172 169 173 173 172 173 169 171 173 172 174 172 166 165 168
140 188 236 226 224 227 230 227 200 157 146 137 129 138 123 108 101 74 107 135 132 127 77 46 103 204 342 40 5 342 320 155 156 166 163 161 162 161 169 165 160 170 154 142 149 155 155 154 157 159 160 163 163 164 165 165 166 166 168 170 169 168 168 168 169 170 173 174 170 165 166 164 163 170 174 175 175 174 177 176 172 176 177 169 164 168
193 231 240 233 229 232 244 243 169 143 138 122 125 137 120 117 110 79 89 117 128 168 115 61 121 199 347 22 340 331 345 348 301 177 174 167 161 164 174 167 163 167 151 145 150 154 154 153 155 158 161 164 163 163 165 166 167 168 170 172 173 172 169 170 172 176 177 176 176 169 166 165 162 164 169 171 172 175 180 177 176 183 185 178 170 170
208 237 237 233 228 231 246 233 153 140 133 131 143 138 140 157 145 114 132 145 278 331 121 104 89 29 336 348 295 281 23 326 307 302 240 177 166 166 175 170 163 166 155 151 153 153 153 153 156 159 162 163 162 162 164 166 167 169 171 174 176 173 171 173 176 179 179 173 171 169 169 172 169 167 168 168 173 182 179 177 181 186 188 186 180 174
227 239 232 232 231 223 238 215 152 140 132 169 173 150 157 166 147 110 135 148 92 27 107 115 85 1 294 307 265 244 44 315 294 328 338 192 175 167 172 171 165 167 159 155 157 156 154 154 157 161 162 162 162 163 165 167 169 170 173 176 178 177 174 175 177 181 180 168 165 165 166 172 173 172 175 173 174 180 182 182 183 183 185 187 184 179
242 247 230 242 240 223 236 210 160 151 134 179 216 197 164 149 120 115 134 144 128 72 166 145 125 187 240 246 241 258 298 276 297 345 313 221 173 172 176 174 168 169 161 157 159 159 158 156 157 160 162 162 163 166 167 168 171 173 175 178 179 178 177 177 179 185 185 173 168 167 165 169 172 174 181 180 175 180 185 188 188 184 178 176 176 178
240 235 205 228 237 229 238 190 161 153 132 191 218 164 143 128 122 135 146 151 149 157 179 204 175 154 203 239 233 248 260 255 286 317 280 261 174 181 184 176 169 170 164 159 161 162 162 158 156 160 163 164 164 168 169 169 173 175 177 178 177 177 179 181 183 187 188 183 180 176 172 174 175 177 181 182 181 187 191 193 193 184 171 170 175 181
230 210 190 218 232 232 237 162 161 149 135 214 173 127 125 122 132 145 145 132 113 119 145 205 237 110 182 238 222 212 242 256 275 278 267 257 206 192 193 184 173 172 166 161 162 164 165 163 160 162 166 168 167 167 169 170 175 178 179 178 177 180 184 186 186 188 190 190 190 185 179 179 180 181 180 181 186 193 193 194 192 183 175 179 188 194
245 195 190 208 211 235 232 162 168 148 122 136 106 99 97 97 104 127 121 107 131 125 142 204 225 95 190 224 190 186 220 235 246 248 251 243 217 198 200 192 179 177 169 162 164 165 168 167 165 165 169 171 171 170 171 173 176 180 180 178 179 185 188 189 188 187 188 191 192 188 182 182 184 184 182 184 190 192 193 194 187 180 181 191 199 203
266 217 200 173 157 235 222 169 171 145 107 106 100 88 78 81 65 17 65 118 127 118 138 190 187 145 204 190 177 191 217 222 226 234 241 236 215 197 203 193 179 184 174 162 165 167 169 170 169 169 170 172 174 174 174 175 176 178 180 180 182 186 187 188 188 186 187 189 189 186 184 184 185 187 186 189 190 189 194 196 187 183 188 195 199 202
253 252 229 164 177 214 175 157 161 124 116 114 102 92 80 77 61 5 324 86 94 80 203 191 185 187 230 191 184 193 208 210 210 221 229 228 214 195 202 194 175 187 182 166 165 167 170 172 171 170 171 172 174 176 177 177 177 177 180 183 185 187 188 188 187 186 188 188 185 184 184 183 184 187 188 188 188 188 192 191 189 192 194 197 199 202
268 271 257 221 202 150 91 86 107 115 120 117 111 113 98 58 38 21 329 13 85 174 229 222 183 184 230 220 183 190 201 201 201 213 217 216 215 200 198 200 178 184 187 171 163 167 169 171 172 171 172 173 174 177 179 179 180 179 181 184 186 188 189 188 186 186 189 188 184 183 184 184 185 187 187 187 189 191 191 190 190 195 198 200 204 207
294 260 253 266 246 114 90 81 95 107 116 115 118 120 101 51 23 29 300 335 113 199 175 194 177 185 236 243 183 186 201 203 202 210 211 206 210 205 196 197 183 181 190 178 165 168 169 170 173 173 173 174 175 178 180 181 181 180 182 184 185 188 190 189 187 188 190 191 189 188 189 189 187 187 189 190 191 191 192 192 192 195 200 203 205 206
323 299 303 321 299 99 107 118 125 124 132 132 139 136 112 108 113 154 235 205 212 234 109 132 165 188 267 253 191 185 196 204 205 209 208 202 205 207 200 193 184 180 189 184 169 169 171 172 174 175 175 176 176 178 179 180 180 180 181 184 185 188 191 191 190 190 193 194 194 194 194 194 192 189 189 192 193 191 191 195 197 200 204 206 207 208
41 314 295 214 246 251 119 150 161 153 159 165 160 145 137 153 157 171 193 176 169 173 83 120 172 181 197 231 198 178 188 198 202 206 204 199 203 206 204 194 188 188 190 186 174 173 174 174 175 176 177 177 177 177 178 179 180 180 181 183 186 187 190 192 192 192 194 195 196 197 195 196 198 195 191 192 196 195 193 197 201 203 206 210 214 213
96 257 263 275 285 250 143 168 153 136 159 212 162 129 150 174 151 129 160 157 142 132 128 178 226 211 192 236 244 206 198 196 195 199 198 197 197 197 204 201 195 195 192 187 179 177 176 175 176 178 179 180 178 176 176 178 179 180 181 183 186 188 189 192 192 192 195 196 197 197 196 197 200 198 195 194 198 200 200 203 206 206 208 212 215 215
30 281 289 321 314 279 168 175 156 138 159 223 180 172 184 151 131 110 89 110 104 107 156 196 262 279 261 272 246 210 212 208 194 193 194 195 191 191 201 204 201 198 194 188 182 180 178 176 178 179 179 181 178 174 175 178 180 181 182 183 185 188 189 190 191 193 196 197 197 197 197 199 199 197 196 197 201 204 203 205 211 212 211 212 213 213
88 291 298 342 329 296 198 168 161 147 155 168 202 206 148 69 95 108 108 79 74 96 245 250 260 260 245 295 271 183 198 215 197 188 190 193 190 191 199 202 201 197 192 190 184 181 177 176 180 181 180 181 178 175 176 178 181 182 182 183 184 186 188 190 192 194 197 199 199 199 199 200 200 199 199 200 202 203 202 204 211 214 214 213 212 211
33 305 291 349 353 317 289 142 240 303 194 171 198 198 132 106 233 95 117 139 117 112 263 278 278 246 210 223 224 182 200 206 188 181 187 190 190 193 198 200 200 194 188 187 183 183 179 177 180 181 181 180 176 175 176 178 180 181 182 184 185 187 190 192 194 194 197 200 201 202 203 202 202 202 202 202 201 200 201 204 209 212 214 213 213 214
17 63 282 323 355 336 345 88 211 288 303 294 348 44 129 141 160 169 173 152 137 156 233 306 316 259 229 201 173 187 203 192 175 177 186 192 193 194 194 193 194 189 182 178 172 171 170 175 180 181 181 177 174 174 175 176 178 181 183 184 185 188 190 192 194 195 197 200 202 203 205 204 205 206 205 203 201 202 206 209 212 215 213 212 215 218
12 63 282 308 351 358 354 347 225 226 254 321 19 154 188 55 116 156 195 143 130 145 174 170 284 263 247 189 169 185 193 188 178 154 158 184 182 182 192 193 190 177 162 155 153 151 149 160 174 181 179 175 172 172 174 176 179 181 182 183 184 186 188 190 194 196 198 201 203 204 206 206 207 208 207 204 204 207 211 214 216 217 213 212 217 217
355 35 325 314 347 352 282 283 298 280 234 193 171 188 185 148 124 135 221 244 123 132 162 156 207 267 255 177 173 182 171 174 166 126 94 93 107 106 85 76 73 92 169 165 144 139 155 153 159 168 172 171 169 171 173 176 178 180 181 183 184 185 187 189 192 197 200 201 203 206 208 208 207 207 207 206 207 211 213 215 216 216 214 217 219 217
163 85 22 307 285 273 273 280 309 330 306 187 171 172 145 144 135 132 185 208 117 88 121 113 145 268 261 122 123 141 139 146 139 119 113 118 133 145 140 115 92 58 292 210 152 155 167 154 154 158 160 164 167 169 173 175 177 179 181 183 183 185 188 190 193 197 200 201 203 206 209 209 208 209 210 209 209 212 215 216 215 214 217 222 225 223
20 46 12 317 297 294 295 301 334 15 34 40 353 3 16 333 204 165 175 166 129 134 124 83 292 267 294 54 81 95 106 105 104 115 126 146 159 148 131 127 138 148 162 182 94 44 143 148 158 157 150 155 163 167 171 174 176 178 180 182 183 187 190 191 193 196 199 203 205 206 208 209 208 209 212 212 211 215 220 221 218 217 220 225 229 231
322 23 31 12 355 339 339 349 350 1 25 30 303 328 2 351 330 237 138 104 130 181 157 136 214 252 296 50 73 79 84 80 81 115 130 145 148 127 122 129 144 148 140 128 105 25 15 44 197 168 151 151 158 166 171 174 177 178 180 182 184 187 190 192 194 195 198 202 204 205 207 209 209 209 211 213 215 219 223 223 221 222 223 227 232 234
102 125 90 77 64 14 334 328 316 321 336 329 313 343 10 360 335 286 136 116 161 190 159 147 212 258 324 58 74 77 85 86 82 87 90 103 114 116 126 134 133 127 120 125 131 121 78 355 332 327 163 156 157 162 168 172 175 177 180 183 185 188 191 192 194 196 198 201 202 204 208 210 210 209 211 214 216 220 221 219 222 229 230 230 233 232
85 102 111 134 160 206 212 251 276 277 303 345 4 9 14 1 344 37 120 175 182 158 175 213 207 210 4 72 87 83 95 107 107 90 85 94 108 117 127 132 139 144 141 142 147 148 147 133 33 352 346 8 144 155 160 165 172 179 182 184 188 190 190 190 192 195 198 199 200 202 206 208 208 209 212 214 215 216 217 219 226 234 235 234 233 230
74 6 133 147 203 251 160 340 320 314 13 32 29 16 10 11 15 37 69 241 188 147 193 242 193 144 82 77 90 80 84 95 87 82 94 105 108 115 125 131 144 152 148 148 151 154 158 150 131 111 32 10 19 48 92 108 112 136 151 148 155 170 170 174 182 192 199 198 196 199 201 201 205 209 212 213 214 216 219 222 226 230 229 227 228 229
103 282 256 121 28 0 52 20 336 340 56 37 30 17 7 22 30 27 349 305 257 159 190 174 100 86 53 59 70 63 67 81 76 67 82 109 113 117 122 130 144 152 151 152 151 149 152 150 141 141 141 131 81 55 47 43 46 56 67 65 61 63 84 142 167 179 192 190 189 192 195 196 202 207 210 211 214 218 223 227 228 225 223 223 224 228
108 268 294 89 55 17 54 39 338 5 55 41 23 11 5 25 39 30 360 348 20 79 91 90 85 70 48 64 76 73 73 84 82 66 68 95 114 120 119 118 130 142 146 146 146 144 144 143 137 130 130 135 131 119 118 118 68 78 82 78 80 89 97 125 140 130 135 158 170 179 185 190 196 202 209 212 214 219 224 228 229 227 231 235 238 240
90 284 310 69 65 357 47 71 334 15 60 50 22 8 6 16 31 29 9 357 26 63 79 86 83 65 41 51 74 81 73 69 68 65 73 94 114 118 116 117 119 121 125 127 131 135 137 136 133 128 125 130 137 139 149 163 166 152 139 125 120 133 151 160 140 105 119 153 167 176 181 186 190 195 203 208 213 218 221 224 226 229 235 237 241 247
80 277 338 59 73 322 345 41 244 207 72 45 18 4 3 12 32 41 29 13 14 31 64 74 73 64 60 62 69 69 62 63 65 64 69 82 98 110 120 129 127 118 116 120 116 112 115 121 126 126 125 129 137 141 143 146 144 134 129 130 131 136 147 159 163 166 181 187 184 184 191 199 203 205 205 203 204 205 206 208 215 224 231 235 238 243
157 89 41 67 92 282 316 336 265 175 66 27 345 337 342 3 51 55 42 34 27 20 40 63 73 101 88 81 76 70 67 71 70 68 72 68 68 80 97 116 118 109 99 99 93 88 87 85 88 96 102 110 120 128 136 141 136 125 120 123 131 140 144 149 158 172 192 201 197 196 204 213 222 227 224 217 210 207 205 206 209 216 224 227 231 235
55 90 110 105 104 272 304 342 28 63 57 271 277 321 331 32 71 69 52 38 42 51 47 41 55 67 67 72 78 75 71 72 66 62 71 67 54 65 74 80 89 90 82 76 74 80 87 87 86 90 95 101 111 121 130 137 134 129 128 128 129 140 149 151 150 159 191 214 216 216 214 217 225 230 229 222 218 218 218 220 224 227 229 231 234 238
71 87 110 81 93 241 321 19 55 87 207 217 192 241 289 85 90 87 75 51 50 64 64 47 38 41 47 64 79 78 69 62 55 49 54 45 31 64 81 77 74 75 74 71 65 60 67 78 83 86 91 99 108 113 112 114 117 119 121 127 132 138 150 164 158 151 191 223 226 224 216 215 219 222 220 214 211 214 217 220 227 233 236 240 246 251
119 113 115 71 55 1 36 50 108 196 261 264 154 97 297 293 79 72 63 45 36 53 74 87 63 43 48 58 79 92 90 75 58 43 41 42 43 63 77 74 72 76 79 83 80 68 61 65 70 72 78 84 89 91 91 96 106 113 118 129 138 138 144 154 151 149 171 198 211 214 209 207 211 212 213 213 214 219 222 226 237 245 246 249 254 259
129 133 107 60 33 107 104 86 177 30 318 308 305 328 318 301 285 86 79 47 29 41 64 98 100 79 83 96 142 137 112 86 65 46 47 60 64 69 74 74 77 79 80 83 87 90 89 87 83 80 80 80 78 79 86 95 104 110 115 122 129 129 132 132 130 137 151 165 184 198 197 197 200 203 210 218 224 232 233 230 238 247 251 254 257 257
122 155 150 120 88 101 98 70 37 89 248 258 252 252 263 270 253 185 121 34 19 66 79 97 104 93 120 166 214 237 46 67 68 51 58 74 79 78 78 79 80 82 83 84 83 85 89 92 93 89 86 83 80 80 89 98 104 108 111 115 121 124 123 119 118 125 133 139 153 167 174 180 183 185 197 210 218 229 233 229 235 245 250 252 255 256
58 66 106 103 79 81 102 117 158 182 219 234 247 260 269 270 256 162 81 9 330 72 87 112 123 341 334 277 273 321 52 78 104 97 83 98 100 97 93 87 86 88 93 96 92 88 91 95 96 93 89 85 83 86 93 99 101 102 102 106 114 116 114 112 113 115 118 122 129 137 146 154 159 163 170 179 185 188 194 204 217 238 250 256 264 268
47 34 55 84 100 99 101 133 197 222 244 240 242 253 264 280 300 85 71 295 249 154 130 145 110 29 347 316 319 29 93 136 154 164 162 123 102 102 111 111 106 105 104 103 102 100 101 101 97 93 91 90 90 94 100 103 101 98 96 97 100 101 101 103 106 111 116 121 124 125 124 120 118 122 126 135 139 124 111 120 139 151 156 178 278 274
42 31 52 101 130 116 100 130 237 264 250 236 243 256 272 351 48 95 179 231 193 155 156 160 140 124 221 271 277 32 117 151 146 149 153 121 103 107 116 113 111 112 110 108 111 111 107 101 97 95 96 97 98 99 102 105 102 98 96 94 92 91 96 101 106 111 117 120 120 117 111 101 93 86 85 95 108 104 96 97 112 126 129 122 122 121
78 46 31 93 131 133 119 122 327 291 252 223 244 279 316 61 84 179 201 189 157 155 160 166 188 194 198 216 201 146 142 146 143 145 141 124 116 120 120 113 108 108 109 111 112 110 104 99 99 100 100 100 99 98 101 102 99 97 97 96 95 99 105 108 110 115 118 117 114 109 103 95 91 88 88 93 104 104 94 91 103 120 130 126 119 112
152 132 67 179 154 118 76 88 94 263 249 217 214 318 357 133 181 190 153 120 135 141 137 145 168 175 171 172 163 151 151 149 144 145 140 130 124 122 122 121 118 116 118 119 116 110 107 104 104 106 110 111 108 106 108 108 107 107 107 107 109 110 108 107 109 115 120 121 118 111 105 97 92 92 93 94 100 101 93 89 95 102 111 121 123 118
155 140 169 204 178 122 117 175 187 229 253 224 153 185 195 159 161 145 122 108 102 100 102 115 132 146 156 160 159 154 150 147 146 146 137 128 128 126 126 129 131 132 131 127 124 122 117 113 111 112 117 122 123 124 125 122 122 123 123 124 126 122 114 110 108 110 116 121 121 118 115 109 97 91 91 91 93 95 92 89 92 95 100 117 128 127
211 174 161 164 161 150 172 212 224 248 292 8 119 147 129 112 119 126 121 116 106 102 107 114 121 138 156 159 157 155 147 145 148 147 141 138 138 138 140 144 147 148 143 135 134 133 126 121 118 116 117 123 129 133 134 130 126 123 122 128 133 127 121 119 116 115 115 114 115 117 114 107 96 87 87 91 94 95 94 95 97 99 104 115 126 134
198 145 120 109 114 115 96 319 333 35 32 50 68 78 94 101 107 109 106 110 122 122 123 123 124 135 147 146 143 132 119 131 140 142 141 142 144 146 146 147 149 147 140 135 134 131 127 124 122 119 117 120 128 134 136 132 125 117 116 124 130 131 134 137 135 131 123 115 117 120 116 105 94 86 81 80 86 92 93 93 93 95 100 110 119 129
163 89 86 100 116 100 76 1 89 76 63 65 72 72 78 82 83 91 101 117 130 119 120 126 123 122 121 117 116 104 86 106 124 131 134 136 143 150 148 147 148 144 139 136 136 133 131 130 128 126 126 127 133 140 140 135 127 123 126 133 134 137 143 146 147 147 141 132 128 128 130 125 120 122 104 83 90 96 92 85 85 87 89 97 108 118
163 92 97 106 101 98 139 182 147 88 54 43 69 83 88 83 78 76 85 97 95 87 90 103 108 112 107 97 99 95 82 90 110 120 123 122 126 139 145 146 146 143 140 140 140 138 135 135 136 137 138 139 142 143 139 135 129 126 130 133 133 133 132 129 137 145 142 134 123 125 137 149 163 181 181 135 117 115 104 88 78 76 79 85 94 103
126 106 121 122 91 78 114 150 120 83 49 34 57 76 87 93 88 76 72 75 74 73 71 70 73 84 94 93 91 86 80 82 100 110 112 109 111 124 135 142 143 141 141 144 145 143 141 142 145 147 144 143 144 142 138 137 135 134 136 136 135 135 121 103 127 169 166 150 126 127 128 130 137 145 139 127 128 131 124 106 84 74 77 86 95 102
117 121 138 122 119 151 192 177 144 118 100 93 104 99 95 99 93 80 73 68 67 72 77 72 64 62 68 78 89 94 88 81 90 98 98 100 110 118 126 135 139 139 141 144 145 144 144 145 148 148 144 143 146 146 141 139 142 149 161 173 184 181 143 101 109 146 153 144 134 131 124 119 125 132 130 123 121 123 123 114 98 88 86 87 95 106
149 161 162 144 152 192 193 176 150 125 132 166 145 119 107 99 90 84 82 79 73 75 80 79 75 65 55 59 78 94 102 98 96 97 91 86 103 114 124 133 136 136 139 144 144 143 145 147 149 148 147 148 155 160 160 158 161 171 175 182 194 191 174 116 98 134 149 150 147 144 134 125 130 137 138 134 125 119 120 113 101 93 85 79 81 89